Location: Unspecified
(0.0000°N, 0.0000°E)
Time: 08:51:00
(UTC+00:00)

deb Delta 104 - Pass Details

Date: 10 March 2026
Orbit: 1402 x 1485 km, 102.0° (Epoch: 18 April)

Event Time Altitude Azimuth Distance (km) Brightness Sun altitude
Rises 05:39:50 0° 31° (NNE) 4,571 ? -7.6°
Reaches altitude 10° 05:42:51 10° 38° (NE) 3,585 ? -6.9°
Maximum altitude 05:50:36 43° 106° (ESE) 1,948 ? -4.9°
Drops below altitude 10° 05:58:13 10° 174° (S) 3,538 ? -3.0°
Sets 06:01:08 0° 181° (S) 4,507 ? -2.3°
